Hourly Data Report for February 26, 2017

All times are specified in Local Standard Time (LST). Add 1 hour to adjust for Daylight Saving Time where and when it is observed.

KLEEFELD (MAFRI)
MANITOBA

49°31'04.000" N
96°54'04.000" W
246.50 m
5021500
71646
PTG

Download Data

Hourly Data (February 2017)
Hourly Data Report for February 26, 2017
Temp Definition
°C
Dew Point Temp Definition
°C
Rel Hum Definition
%
Wind Dir Definition
10's deg

Wind Spd Definition
km/h
Visibility Definition
km
Stn Press Definition
kPa
Hmdx Definition


Wind Chill Definition


Weather Definition


TIME
00:00 -11.4 -15.4 72 31 8   97.78   -16 LegendNANA
01:00 -11.4 -15.2 73 28 8   97.77   -16 LegendNANA
02:00 -11.4 -14.9 76 28 9   97.80   -17 LegendNANA
03:00 -11.5 -14.4 79 28 6   97.81   -15 LegendNANA
04:00 -13.2 -15.8 80 26 9   97.80   -19 LegendNANA
05:00 -15.3 -18.1 79 28 8   97.84   -21 LegendNANA
06:00 -16.4 -19.1 80 26 7   97.85   -21 LegendNANA
07:00 -17.7 -20.3 81 23 7   97.87   -23 LegendNANA
08:00 -18.1 -20.6 81 20 9   97.90   -24 LegendNANA
09:00 -17.2 -20.3 77 24 10   97.95   -24 LegendNANA
10:00 -15.7 -19.5 73 25 13   98.00   -23 LegendNANA
11:00 -13.8 -18.1 70 24 13   98.05   -21 LegendNANA
12:00 -11.8 -16.5 68 23 11   98.04   -18 LegendNANA
13:00 -11.0 -15.7 68 20 15   97.99   -18 LegendNANA
14:00 -10.4 -15.3 67 21 17   97.99   -18 LegendNANA
15:00 -9.3 -14.3 67 21 17   98.00   -16 LegendNANA
16:00 -9.4 -13.6 71 19 19   98.00   -17 LegendNANA
17:00 -8.5 -12.9 71 20 23   98.00   -17 LegendNANA
18:00 -9.3 -13.1 74 19 18   98.01   -17 LegendNANA
19:00 -8.3 -12.3 73 21 24   98.03   -16 LegendNANA
20:00 -9.2 -12.8 75 20 18   98.04   -16 LegendNANA
21:00 -9.5 -13.2 75 21 21   98.08   -17 LegendNANA
22:00 -10.3 -13.8 75 21 20   98.10   -18 LegendNANA
23:00 -10.9 -14.3 76 21 15   98.11   -18 LegendNANA

Notes on Data Quality.

Legend

  • E = Estimated
  • M = Missing
  • NA = Not Available
  • ‡ = Partner data that is not subject to review by the National Climate Archives
Date modified: